Location: Alexandria
(38.8050°N, 77.0470°W)
Time: 11:10:25

Envisat - Pass Details

Date: 14 March 2018
Orbit: 764 x 766 km, 98.2° (Epoch: 23 March)

Event Time Altitude Azimuth Distance (km) Brightness Sun altitude
Rises 20:12:40 0° 154° (SSE) 3,217 5.9 -12.2°
Reaches altitude 10° 20:15:00 10° 150° (SSE) 2,295 5.1 -12.6°
Maximum altitude 20:19:56 56° 73° (ENE) 908 3.1 -13.6°
Drops below altitude 10° 20:24:54 10° 356° (N) 2,309 5.6 -14.5°
Sets 20:27:14 0° 353° (N) 3,239 6.5 -15.0°
